Time,TemperatureF,DewpointF,PressureIn,WindDirection,WindDirectionDegrees,WindSpeedMPH,WindSpeedGustMPH,Humidity,HourlyPrecipIn,Conditions,Clouds,dailyrainin,SoftwareType,DateUTC
2013-03-05 00:06:00,-999.0,-99.9,30.23,North,-999,-999.0,-999.0,-999,-99.99,,,0.00,weatherlink.com 1.10,2013-03-05 09:06:00,
2013-03-05 00:21:00,-999.0,-99.9,30.23,North,-999,-999.0,-999.0,-999,-99.99,,,0.00,weatherlink.com 1.10,2013-03-05 09:21:00,
2013-03-05 00:36:00,-999.0,-99.9,30.23,North,-999,-999.0,-999.0,-999,-99.99,,,0.00,weatherlink.com 1.10,2013-03-05 09:36:00,
2013-03-05 00:51:00,-999.0,-99.9,30.23,North,-999,-999.0,-999.0,-999,-99.99,,,0.00,weatherlink.com 1.10,2013-03-05 09:51:00,
2013-03-05 01:06:00,-999.0,-99.9,30.23,North,-999,-999.0,-999.0,-999,-99.99,,,0.00,weatherlink.com 1.10,2013-03-05 10:06:00,
2013-03-05 01:21:00,-999.0,-99.9,30.22,North,-999,-999.0,-999.0,-999,-99.99,,,0.00,weatherlink.com 1.10,2013-03-05 10:21:00,
2013-03-05 01:37:00,-999.0,-99.9,30.22,North,-999,-999.0,-999.0,-999,-99.99,,,0.00,weatherlink.com 1.10,2013-03-05 10:37:00,
2013-03-05 01:52:00,-999.0,-99.9,30.21,North,-999,-999.0,-999.0,-999,-99.99,,,0.00,weatherlink.com 1.10,2013-03-05 10:52:00,
2013-03-05 02:07:00,-999.0,-99.9,30.21,North,-999,-999.0,-999.0,-999,-99.99,,,0.00,weatherlink.com 1.10,2013-03-05 11:07:00,
2013-03-05 02:22:00,-999.0,-99.9,30.21,North,-999,-999.0,-999.0,-999,-99.99,,,0.00,weatherlink.com 1.10,2013-03-05 11:22:00,
2013-03-05 02:37:00,-999.0,-99.9,30.20,North,-999,-999.0,-999.0,-999,-99.99,,,0.00,weatherlink.com 1.10,2013-03-05 11:37:00,
2013-03-05 02:52:00,-999.0,-99.9,30.20,North,-999,-999.0,-999.0,-999,-99.99,,,0.00,weatherlink.com 1.10,2013-03-05 11:52:00,
2013-03-05 03:07:00,-999.0,-99.9,30.25,North,-999,-999.0,-999.0,-999,-99.99,,,0.00,weatherlink.com 1.10,2013-03-05 12:07:00,
2013-03-05 03:22:00,-999.0,-99.9,30.25,North,-999,-999.0,-999.0,-999,-99.99,,,0.00,weatherlink.com 1.10,2013-03-05 12:22:00,
2013-03-05 03:37:00,-999.0,-99.9,30.24,North,-999,-999.0,-999.0,-999,-99.99,,,0.00,weatherlink.com 1.10,2013-03-05 12:37:00,
2013-03-05 03:52:00,-999.0,-99.9,30.23,North,-999,-999.0,-999.0,-999,-99.99,,,0.00,weatherlink.com 1.10,2013-03-05 12:52:00,
2013-03-05 04:07:00,-999.0,-99.9,30.23,North,-999,-999.0,-999.0,-999,-99.99,,,0.00,weatherlink.com 1.10,2013-03-05 13:07:00,
2013-03-05 04:22:00,-999.0,-99.9,30.23,North,-999,-999.0,-999.0,-999,-99.99,,,0.00,weatherlink.com 1.10,2013-03-05 13:22:00,
2013-03-05 04:37:00,-999.0,-99.9,30.23,North,-999,-999.0,-999.0,-999,-99.99,,,0.00,weatherlink.com 1.10,2013-03-05 13:37:00,
2013-03-05 04:52:00,-999.0,-99.9,30.22,North,-999,-999.0,-999.0,-999,-99.99,,,0.00,weatherlink.com 1.10,2013-03-05 13:52:00,
2013-03-05 05:08:00,-999.0,-99.9,30.16,North,-999,-999.0,-999.0,-999,-99.99,,,0.00,weatherlink.com 1.10,2013-03-05 14:08:00,
2013-03-05 05:23:00,-999.0,-99.9,30.16,North,-999,-999.0,-999.0,-999,-99.99,,,0.00,weatherlink.com 1.10,2013-03-05 14:23:00,
2013-03-05 05:38:00,-999.0,-99.9,30.16,North,-999,-999.0,-999.0,-999,-99.99,,,0.00,weatherlink.com 1.10,2013-03-05 14:38:00,
2013-03-05 05:53:00,-999.0,-99.9,30.15,North,-999,-999.0,-999.0,-999,-99.99,,,0.00,weatherlink.com 1.10,2013-03-05 14:53:00,
2013-03-05 06:08:00,-999.0,-99.9,30.15,North,-999,-999.0,-999.0,-999,-99.99,,,0.00,weatherlink.com 1.10,2013-03-05 15:08:00,
2013-03-05 06:23:00,-999.0,-99.9,30.15,North,-999,-999.0,-999.0,-999,-99.99,,,0.00,weatherlink.com 1.10,2013-03-05 15:23:00,
2013-03-05 06:38:00,-999.0,-99.9,30.15,North,-999,-999.0,-999.0,-999,-99.99,,,0.00,weatherlink.com 1.10,2013-03-05 15:38:00,
2013-03-05 06:53:00,-999.0,-99.9,30.14,North,-999,-999.0,-999.0,-999,-99.99,,,0.00,weatherlink.com 1.10,2013-03-05 15:53:00,
2013-03-05 07:08:00,-999.0,-99.9,30.14,North,-999,-999.0,-999.0,-999,-99.99,,,0.00,weatherlink.com 1.10,2013-03-05 16:08:00,
2013-03-05 07:23:00,-999.0,-99.9,30.13,North,-999,-999.0,-999.0,-999,-99.99,,,0.00,weatherlink.com 1.10,2013-03-05 16:23:00,
2013-03-05 07:38:00,-999.0,-99.9,30.13,North,-999,-999.0,-999.0,-999,-99.99,,,0.00,weatherlink.com 1.10,2013-03-05 16:38:00,
2013-03-05 07:53:00,-999.0,-99.9,30.13,North,-999,-999.0,-999.0,-999,-99.99,,,0.00,weatherlink.com 1.10,2013-03-05 16:53:00,
2013-03-05 08:08:00,-999.0,-99.9,30.12,North,-999,-999.0,-999.0,-999,-99.99,,,0.00,weatherlink.com 1.10,2013-03-05 17:08:00,
2013-03-05 08:24:00,-999.0,-99.9,30.12,North,-999,-999.0,-999.0,-999,-99.99,,,0.00,weatherlink.com 1.10,2013-03-05 17:24:00,
2013-03-05 08:39:00,-999.0,-99.9,30.11,North,-999,-999.0,-999.0,-999,-99.99,,,0.00,weatherlink.com 1.10,2013-03-05 17:39:00,
2013-03-05 08:54:00,-999.0,-99.9,30.11,North,-999,-999.0,-999.0,-999,-99.99,,,0.00,weatherlink.com 1.10,2013-03-05 17:54:00,
2013-03-05 09:09:00,-999.0,-99.9,30.11,North,-999,-999.0,-999.0,-999,-99.99,,,0.00,weatherlink.com 1.10,2013-03-05 18:09:00,
2013-03-05 09:24:00,-999.0,-99.9,30.10,North,-999,-999.0,-999.0,-999,-99.99,,,0.00,weatherlink.com 1.10,2013-03-05 18:24:00,
2013-03-05 09:39:00,-999.0,-99.9,30.10,North,-999,-999.0,-999.0,-999,-99.99,,,0.00,weatherlink.com 1.10,2013-03-05 18:39:00,
2013-03-05 09:54:00,-999.0,-99.9,30.10,North,-999,-999.0,-999.0,-999,-99.99,,,0.00,weatherlink.com 1.10,2013-03-05 18:54:00,
2013-03-05 10:24:00,-999.0,-99.9,30.09,North,-999,-999.0,-999.0,-999,-99.99,,,0.00,weatherlink.com 1.10,2013-03-05 19:24:00,
2013-03-05 10:39:00,-999.0,-99.9,30.09,North,-999,-999.0,-999.0,-999,-99.99,,,0.00,weatherlink.com 1.10,2013-03-05 19:39:00,
2013-03-05 10:54:00,-999.0,-99.9,30.09,North,-999,-999.0,-999.0,-999,-99.99,,,0.00,weatherlink.com 1.10,2013-03-05 19:54:00,
2013-03-05 11:09:00,-999.0,-99.9,30.08,North,-999,-999.0,-999.0,-999,-99.99,,,0.00,weatherlink.com 1.10,2013-03-05 20:09:00,
2013-03-05 11:24:00,-999.0,-99.9,30.08,North,-999,-999.0,-999.0,-999,-99.99,,,0.00,weatherlink.com 1.10,2013-03-05 20:24:00,
2013-03-05 11:40:00,-999.0,-99.9,30.08,North,-999,-999.0,-999.0,-999,-99.99,,,0.00,weatherlink.com 1.10,2013-03-05 20:40:00,
2013-03-05 11:55:00,-999.0,-99.9,30.07,North,-999,-999.0,-999.0,-999,-99.99,,,0.00,weatherlink.com 1.10,2013-03-05 20:55:00,
2013-03-05 12:10:00,-999.0,-99.9,30.07,North,-999,-999.0,-999.0,-999,-99.99,,,0.00,weatherlink.com 1.10,2013-03-05 21:10:00,
2013-03-05 12:25:00,-999.0,-99.9,30.07,North,-999,-999.0,-999.0,-999,-99.99,,,0.00,weatherlink.com 1.10,2013-03-05 21:25:00,
2013-03-05 12:40:00,-999.0,-99.9,30.06,North,-999,-999.0,-999.0,-999,-99.99,,,0.00,weatherlink.com 1.10,2013-03-05 21:40:00,
2013-03-05 12:55:00,-999.0,-99.9,30.06,North,-999,-999.0,-999.0,-999,-99.99,,,0.00,weatherlink.com 1.10,2013-03-05 21:55:00,
2013-03-05 13:10:00,-999.0,-99.9,30.05,North,-999,-999.0,-999.0,-999,-99.99,,,0.00,weatherlink.com 1.10,2013-03-05 22:10:00,
2013-03-05 13:25:00,26.6,15.0,30.10,North,-999,0.0,-999.0,63,-99.99,,,0.00,weatherlink.com 1.10,2013-03-05 22:25:00,
2013-03-05 13:40:00,27.1,15.0,30.10,North,-999,0.0,-999.0,60,-99.99,,,0.00,weatherlink.com 1.10,2013-03-05 22:40:00,
2013-03-05 13:55:00,27.7,15.0,30.09,North,-999,0.0,-999.0,59,-99.99,,,0.00,weatherlink.com 1.10,2013-03-05 22:55:00,
2013-03-05 14:10:00,28.1,16.0,30.08,North,-999,0.0,-999.0,60,-99.99,,,0.00,weatherlink.com 1.10,2013-03-05 23:10:00,
2013-03-05 14:25:00,28.4,16.0,30.07,North,-999,0.0,-999.0,59,-99.99,,,0.00,weatherlink.com 1.10,2013-03-05 23:25:00,
2013-03-05 14:40:00,28.8,15.0,30.06,North,-999,0.0,-999.0,57,-99.99,,,0.00,weatherlink.com 1.10,2013-03-05 23:40:00,
2013-03-05 14:55:00,29.4,16.0,30.06,North,-999,0.0,-999.0,57,-99.99,,,0.00,weatherlink.com 1.10,2013-03-05 23:55:00,
2013-03-05 15:11:00,29.4,16.0,30.05,North,360,0.0,-999.0,58,-99.99,,,0.00,weatherlink.com 1.10,2013-03-06 00:11:00,
2013-03-05 15:25:00,29.9,16.0,30.04,North,-999,0.0,-999.0,57,-99.99,,,0.00,weatherlink.com 1.10,2013-03-06 00:25:00,
2013-03-05 15:40:00,29.9,17.0,30.04,North,-999,0.0,-999.0,58,-99.99,,,0.00,weatherlink.com 1.10,2013-03-06 00:40:00,
2013-03-05 15:55:00,30.1,17.0,30.03,North,360,0.0,-999.0,58,-99.99,,,0.00,weatherlink.com 1.10,2013-03-06 00:55:00,
2013-03-05 16:10:00,29.5,17.0,30.03,North,360,0.0,-999.0,60,-99.99,,,0.00,weatherlink.com 1.10,2013-03-06 01:10:00,
2013-03-05 16:25:00,29.1,17.0,30.02,North,360,0.0,-999.0,62,-99.99,,,0.00,weatherlink.com 1.10,2013-03-06 01:25:00,
2013-03-05 16:40:00,28.3,18.0,30.02,North,360,0.0,-999.0,65,-99.99,,,0.00,weatherlink.com 1.10,2013-03-06 01:40:00,
2013-03-05 16:55:00,28.0,18.0,30.02,North,-999,0.0,-999.0,65,-99.99,,,0.00,weatherlink.com 1.10,2013-03-06 01:55:00,
2013-03-05 17:10:00,27.4,17.0,30.02,North,-999,0.0,-999.0,66,-99.99,,,0.00,weatherlink.com 1.10,2013-03-06 02:10:00,
2013-03-05 17:25:00,26.7,15.0,30.01,North,360,0.0,-999.0,62,-99.99,,,0.00,weatherlink.com 1.10,2013-03-06 02:25:00,
2013-03-05 17:40:00,26.4,14.0,30.01,North,-999,0.0,-999.0,61,-99.99,,,0.00,weatherlink.com 1.10,2013-03-06 02:40:00,
2013-03-05 17:56:00,-999.0,-99.9,30.00,North,-999,-999.0,-999.0,-999,-99.99,,,0.00,weatherlink.com 1.10,2013-03-06 02:56:00,
2013-03-05 18:11:00,-999.0,-99.9,29.94,North,-999,-999.0,-999.0,-999,-99.99,,,0.00,weatherlink.com 1.10,2013-03-06 03:11:00,
2013-03-05 18:26:00,-999.0,-99.9,29.94,North,-999,-999.0,-999.0,-999,-99.99,,,0.00,weatherlink.com 1.10,2013-03-06 03:26:00,
2013-03-05 18:41:00,-999.0,-99.9,29.94,North,-999,-999.0,-999.0,-999,-99.99,,,0.00,weatherlink.com 1.10,2013-03-06 03:41:00,
2013-03-05 18:56:00,-999.0,-99.9,29.94,North,-999,-999.0,-999.0,-999,-99.99,,,0.00,weatherlink.com 1.10,2013-03-06 03:56:00,
2013-03-05 19:11:00,-999.0,-99.9,29.93,North,-999,-999.0,-999.0,-999,-99.99,,,0.00,weatherlink.com 1.10,2013-03-06 04:11:00,
2013-03-05 19:26:00,-999.0,-99.9,29.93,North,-999,-999.0,-999.0,-999,-99.99,,,0.00,weatherlink.com 1.10,2013-03-06 04:26:00,
2013-03-05 19:41:00,-999.0,-99.9,29.93,North,-999,-999.0,-999.0,-999,-99.99,,,0.00,weatherlink.com 1.10,2013-03-06 04:41:00,
2013-03-05 19:56:00,-999.0,-99.9,29.93,North,-999,-999.0,-999.0,-999,-99.99,,,0.00,weatherlink.com 1.10,2013-03-06 04:56:00,
2013-03-05 20:11:00,-999.0,-99.9,29.93,North,-999,-999.0,-999.0,-999,-99.99,,,0.00,weatherlink.com 1.10,2013-03-06 05:11:00,
2013-03-05 20:26:00,-999.0,-99.9,29.93,North,-999,-999.0,-999.0,-999,-99.99,,,0.00,weatherlink.com 1.10,2013-03-06 05:26:00,
2013-03-05 20:41:00,-999.0,-99.9,29.92,North,-999,-999.0,-999.0,-999,-99.99,,,0.00,weatherlink.com 1.10,2013-03-06 05:41:00,
2013-03-05 20:56:00,-999.0,-99.9,29.92,North,-999,-999.0,-999.0,-999,-99.99,,,0.00,weatherlink.com 1.10,2013-03-06 05:56:00,
2013-03-05 21:11:00,-999.0,-99.9,29.91,North,-999,-999.0,-999.0,-999,-99.99,,,0.00,weatherlink.com 1.10,2013-03-06 06:11:00,
2013-03-05 21:27:00,-999.0,-99.9,29.91,North,-999,-999.0,-999.0,-999,-99.99,,,0.00,weatherlink.com 1.10,2013-03-06 06:27:00,
2013-03-05 21:57:00,-999.0,-99.9,29.90,North,-999,-999.0,-999.0,-999,-99.99,,,0.00,weatherlink.com 1.10,2013-03-06 06:57:00,
2013-03-05 22:12:00,-999.0,-99.9,29.90,North,-999,-999.0,-999.0,-999,-99.99,,,0.00,weatherlink.com 1.10,2013-03-06 07:12:00,
2013-03-05 22:27:00,-999.0,-99.9,29.90,North,-999,-999.0,-999.0,-999,-99.99,,,0.00,weatherlink.com 1.10,2013-03-06 07:27:00,
2013-03-05 22:42:00,-999.0,-99.9,29.91,North,-999,-999.0,-999.0,-999,-99.99,,,0.00,weatherlink.com 1.10,2013-03-06 07:42:00,
2013-03-05 22:57:00,-999.0,-99.9,29.90,North,-999,-999.0,-999.0,-999,-99.99,,,0.00,weatherlink.com 1.10,2013-03-06 07:57:00,
2013-03-05 23:12:00,-999.0,-99.9,29.90,North,-999,-999.0,-999.0,-999,-99.99,,,0.00,weatherlink.com 1.10,2013-03-06 08:12:00,
2013-03-05 23:27:00,-999.0,-99.9,29.89,North,-999,-999.0,-999.0,-999,-99.99,,,0.00,weatherlink.com 1.10,2013-03-06 08:27:00,
2013-03-05 23:42:00,-999.0,-99.9,29.90,North,-999,-999.0,-999.0,-999,-99.99,,,0.00,weatherlink.com 1.10,2013-03-06 08:42:00,
2013-03-05 23:57:00,-999.0,-99.9,29.89,North,-999,-999.0,-999.0,-999,-99.99,,,0.00,weatherlink.com 1.10,2013-03-06 08:57:00,